Welcome to Northern Hawkes Bay. New Zealand.
PWS Header
      nz Flag



Hit Counter


W3C Valid W3C Valid logo


    Wairoa

Select any of the Stations below to visit their websites.










Historic Data from Weather Underground
Select the location of interest below. Wairoa is the default. Please have patience, this Data is slow to load in.
Northern Hawkes Bay Historical Data
Daily Summary for November 1, 2017 Units:  Metric    English   Both
« Previous Day
Next Day »
Daily Weekly Monthly Yearly Custom
  High: Low: Average:
Temperature: 24.4 °C 12.5 °C 17.5 °C
Dew Point: 13.3 °C 6.9 °C 10.6 °C
Humidity: 88% 37% 66%
Wind Speed: 18.3km/h 0.0km/h 3km/h
Wind Gust: 25.6km/h - -
Wind- - East
Pressure: 1030.0 hPa 1026.6 hPa -
Precipitation: 0.0 mm    
Historical Graphs
 
 
Tabular Data for November 1, 2017
Time Temperature Dew Point Pressure Wind Wind Speed Wind Gust Humidity Rainfall Rate (Hourly) solar
00:02 14.6 °C 11.9 °C 1028.7 hPa ENE 1.1 km/h 3.5 km/h 84% 0.0 mm 0 W/m2
00:07 14.6 °C 11.9 °C 1028.7 hPa ENE 1.1 km/h 3.5 km/h 84% 0.0 mm 0 W/m2
00:12 14.6 °C 11.9 °C 1028.7 hPa ENE 1.1 km/h 5.0 km/h 84% 0.0 mm 0 W/m2
00:17 14.7 °C 12.1 °C 1028.7 hPa ENE 1.1 km/h 5.0 km/h 84% 0.0 mm 0 W/m2
00:22 14.8 °C 11.9 °C 1028.7 hPa ENE 1.1 km/h 5.0 km/h 83% 0.0 mm 0 W/m2
00:27 14.8 °C 11.9 °C 1028.7 hPa ENE 3.5 km/h 6.1 km/h 83% 0.0 mm 0 W/m2
00:32 14.8 °C 11.9 °C 1028.7 hPa Calm   6.1 km/h 83% 0.0 mm 0 W/m2
00:37 14.7 °C 11.8 °C 1028.7 hPa Calm   6.1 km/h 83% 0.0 mm 0 W/m2
00:42 14.6 °C 11.8 °C 1028.7 hPa NNE 2.6 km/h 5.0 km/h 83% 0.0 mm 0 W/m2
00:47 14.5 °C 11.7 °C 1028.3 hPa NE 1.1 km/h 5.0 km/h 83% 0.0 mm 0 W/m2
00:52 14.5 °C 11.7 °C 1028.3 hPa NE 1.1 km/h 5.0 km/h 83% 0.0 mm 0 W/m2
00:57 14.3 °C 11.6 °C 1028.3 hPa Calm   3.5 km/h 84% 0.0 mm 0 W/m2
01:02 14.3 °C 11.6 °C 1028.3 hPa NNE 2.6 km/h 6.1 km/h 84% 0.0 mm 0 W/m2
01:07 14.3 °C 11.6 °C 1028.3 hPa Calm   6.1 km/h 84% 0.0 mm 0 W/m2
01:12 14.3 °C 11.6 °C 1028.3 hPa Calm   6.1 km/h 84% 0.0 mm 0 W/m2
01:17 14.3 °C 11.6 °C 1028.3 hPa Calm   3.5 km/h 84% 0.0 mm 0 W/m2
01:22 14.2 °C 11.6 °C 1028.3 hPa Calm   3.5 km/h 84% 0.0 mm 0 W/m2
01:27 14.2 °C 11.6 °C 1028.3 hPa Calm   2.6 km/h 84% 0.0 mm 0 W/m2
01:32 14.2 °C 11.6 °C 1028.3 hPa Calm   2.6 km/h 84% 0.0 mm 0 W/m2
01:37 14.1 °C 11.4 °C 1028.3 hPa Calm     84% 0.0 mm 0 W/m2
01:42 14.1 °C 11.4 °C 1028.3 hPa Calm     84% 0.0 mm 0 W/m2
01:47 14.1 °C 11.4 °C 1028.3 hPa Calm     84% 0.0 mm 0 W/m2
01:52 14.1 °C 11.4 °C 1028.3 hPa Calm   1.1 km/h 84% 0.0 mm 0 W/m2
01:57 14.0 °C 11.3 °C 1028.3 hPa Calm   1.1 km/h 84% 0.0 mm 0 W/m2
02:02 13.9 °C 11.4 °C 1028.3 hPa Calm     85% 0.0 mm 0 W/m2
02:07 13.8 °C 11.3 °C 1028.3 hPa Calm     85% 0.0 mm 0 W/m2
02:12 13.6 °C 11.1 °C 1028.3 hPa Calm     85% 0.0 mm 0 W/m2
02:17 13.5 °C 11.2 °C 1028.3 hPa Calm     86% 0.0 mm 0 W/m2
02:22 13.5 °C 11.4 °C 1028.0 hPa Calm   1.1 km/h 87% 0.0 mm 0 W/m2
02:27 13.5 °C 11.4 °C 1028.0 hPa Calm   1.1 km/h 87% 0.0 mm 0 W/m2
02:32 13.5 °C 11.6 °C 1028.3 hPa North 1.1 km/h 3.5 km/h 88% 0.0 mm 0 W/m2
02:37 13.5 °C 11.6 °C 1028.0 hPa Calm   3.5 km/h 88% 0.0 mm 0 W/m2
02:42 13.5 °C 11.6 °C 1028.0 hPa Calm   3.5 km/h 88% 0.0 mm 0 W/m2
02:47 13.4 °C 11.4 °C 1028.3 hPa Calm   3.5 km/h 88% 0.0 mm 0 W/m2
02:52 13.4 °C 11.4 °C 1028.3 hPa North 1.1 km/h 6.1 km/h 88% 0.0 mm 0 W/m2
02:57 13.4 °C 11.4 °C 1028.7 hPa NNE 2.6 km/h 6.1 km/h 88% 0.0 mm 0 W/m2
03:02 13.4 °C 11.4 °C 1028.3 hPa Calm   5.0 km/h 88% 0.0 mm 0 W/m2
03:07 13.5 °C 11.6 °C 1028.3 hPa Calm   5.0 km/h 88% 0.0 mm 0 W/m2
03:12 13.6 °C 11.5 °C 1028.3 hPa North 3.5 km/h 8.7 km/h 87% 0.0 mm 0 W/m2
03:17 13.8 °C 11.5 °C 1028.7 hPa North 2.6 km/h 9.7 km/h 86% 0.0 mm 0 W/m2
03:22 13.9 °C 11.6 °C 1028.3 hPa NNE 2.6 km/h 9.7 km/h 86% 0.0 mm 0 W/m2
03:27 14.0 °C 11.3 °C 1028.7 hPa North 2.6 km/h 7.2 km/h 84% 0.0 mm 0 W/m2
03:32 13.9 °C 11.4 °C 1028.3 hPa North 6.1 km/h 7.2 km/h 85% 0.0 mm 0 W/m2
03:37 14.0 °C 11.3 °C 1028.7 hPa North 5.0 km/h 7.2 km/h 84% 0.0 mm 0 W/m2
03:42 14.0 °C 11.3 °C 1028.3 hPa Calm   7.2 km/h 84% 0.0 mm 0 W/m2
03:47 13.9 °C 11.2 °C 1028.7 hPa North 1.1 km/h 7.2 km/h 84% 0.0 mm 0 W/m2
03:52 13.8 °C 11.2 °C 1028.3 hPa Calm   6.1 km/h 84% 0.0 mm 0 W/m2
03:57 13.6 °C 11.1 °C 1028.3 hPa North 1.1 km/h 3.5 km/h 85% 0.0 mm 0 W/m2
04:02 13.6 °C 11.1 °C 1028.3 hPa North 1.1 km/h 7.2 km/h 85% 0.0 mm 0 W/m2
04:07 13.6 °C 11.1 °C 1028.3 hPa North 1.1 km/h 7.2 km/h 85% 0.0 mm 0 W/m2
04:12 13.5 °C 11.1 °C 1028.3 hPa North 1.1 km/h 3.5 km/h 85% 0.0 mm 0 W/m2
04:17 13.5 °C 11.1 °C 1028.7 hPa Calm   3.5 km/h 85% 0.0 mm 0 W/m2
04:22 13.4 °C 10.9 °C 1028.3 hPa Calm   2.6 km/h 85% 0.0 mm 0 W/m2
04:27 13.4 °C 10.9 °C 1028.3 hPa Calm   1.1 km/h 85% 0.0 mm 0 W/m2
04:32 13.4 °C 10.9 °C 1028.3 hPa Calm   1.1 km/h 85% 0.0 mm 0 W/m2
04:37 13.3 °C 10.8 °C 1028.3 hPa Calm   1.1 km/h 85% 0.0 mm 0 W/m2
04:42 13.3 °C 10.8 °C 1028.7 hPa Calm   1.1 km/h 85% 0.0 mm 0 W/m2
04:47 13.2 °C 10.7 °C 1028.3 hPa Calm   1.1 km/h 85% 0.0 mm 0 W/m2
04:52 13.2 °C 10.7 °C 1028.7 hPa Calm   1.1 km/h 85% 0.0 mm 0 W/m2
04:57 13.1 °C 10.7 °C 1028.3 hPa Calm   1.1 km/h 85% 0.0 mm 0 W/m2
05:02 13.0 °C 10.7 °C 1028.7 hPa Calm   1.1 km/h 86% 0.0 mm 0 W/m2
05:07 13.0 °C 10.7 °C 1028.3 hPa Calm   1.1 km/h 86% 0.0 mm 0 W/m2
05:12 12.9 °C 10.6 °C 1028.3 hPa Calm   1.1 km/h 86% 0.0 mm 0 W/m2
05:17 12.8 °C 10.5 °C 1028.3 hPa Calm   1.1 km/h 86% 0.0 mm 0 W/m2
05:22 12.8 °C 10.5 °C 1028.3 hPa Calm   1.1 km/h 86% 0.0 mm 0 W/m2
05:27 12.8 °C 10.7 °C 1028.3 hPa Calm   1.1 km/h 87% 0.0 mm 0 W/m2
05:32 12.9 °C 10.8 °C 1028.7 hPa Calm   2.6 km/h 87% 0.0 mm 0 W/m2
05:37 13.0 °C 10.7 °C 1028.3 hPa Calm   6.1 km/h 86% 0.0 mm 0 W/m2
05:42 13.0 °C 10.7 °C 1028.7 hPa Calm   6.1 km/h 86% 0.0 mm 0 W/m2
05:47 13.1 °C 10.8 °C 1028.7 hPa Calm   2.6 km/h 86% 0.0 mm 0 W/m2
05:52 13.1 °C 10.7 °C 1028.7 hPa Calm   3.5 km/h 85% 0.0 mm 0 W/m2
05:57 13.1 °C 10.7 °C 1028.7 hPa North 1.1 km/h 3.5 km/h 85% 0.0 mm 0 W/m2
06:02 13.1 °C 10.7 °C 1028.7 hPa North 1.1 km/h 3.5 km/h 85% 0.0 mm 0 W/m2
06:07 13.0 °C 10.6 °C 1028.7 hPa Calm   3.5 km/h 85% 0.0 mm 0 W/m2
06:12 12.9 °C 10.3 °C 1028.7 hPa Calm   2.6 km/h 84% 0.0 mm 3 W/m2
06:17 12.8 °C 10.2 °C 1028.7 hPa Calm   2.6 km/h 84% 0.0 mm 4 W/m2
06:22 12.7 °C 10.1 °C 1029.0 hPa Calm   2.6 km/h 84% 0.0 mm 8 W/m2
06:27 12.6 °C 10.2 °C 1029.0 hPa Calm   1.1 km/h 85% 0.0 mm 12 W/m2
06:32 12.5 °C 10.1 °C 1029.0 hPa North 1.1 km/h 2.6 km/h 85% 0.0 mm 19 W/m2
06:37 12.6 °C 10.3 °C 1029.0 hPa Calm   3.5 km/h 86% 0.0 mm 25 W/m2
06:42 12.7 °C 10.4 °C 1028.7 hPa Calm   3.5 km/h 86% 0.0 mm 31 W/m2
06:47 12.9 °C 10.6 °C 1029.0 hPa Calm   3.5 km/h 86% 0.0 mm 35 W/m2
06:52 13.1 °C 10.8 °C 1029.0 hPa NNE 1.1 km/h 3.5 km/h 86% 0.0 mm 39 W/m2
06:57 13.3 °C 10.8 °C 1029.0 hPa Calm   3.5 km/h 85% 0.0 mm 44 W/m2
07:02 13.5 °C 11.1 °C 1029.0 hPa Calm   3.5 km/h 85% 0.0 mm 53 W/m2
07:07 13.8 °C 11.2 °C 1029.3 hPa NE 2.6 km/h 5.0 km/h 84% 0.0 mm 61 W/m2
07:12 14.0 °C 10.8 °C 1029.3 hPa Calm   5.0 km/h 81% 0.0 mm 66 W/m2
07:17 14.3 °C 10.9 °C 1029.3 hPa Calm   7.2 km/h 80% 0.0 mm 79 W/m2
07:22 14.5 °C 10.9 °C 1029.3 hPa Calm   7.2 km/h 79% 0.0 mm 85 W/m2
07:27 14.8 °C 11.2 °C 1029.3 hPa Calm   3.5 km/h 79% 0.0 mm 91 W/m2
07:32 15.1 °C 10.9 °C 1029.7 hPa Calm   2.6 km/h 76% 0.0 mm 99 W/m2
07:37 15.2 °C 10.8 °C 1029.3 hPa Calm   3.5 km/h 75% 0.0 mm 114 W/m2
07:42 15.2 °C 10.8 °C 1029.7 hPa Calm   5.0 km/h 75% 0.0 mm 125 W/m2
07:47 15.3 °C 10.7 °C 1029.3 hPa ENE 2.6 km/h 6.1 km/h 74% 0.0 mm 149 W/m2
07:52 15.6 °C 10.8 °C 1029.7 hPa ENE 2.6 km/h 7.2 km/h 73% 0.0 mm 143 W/m2
07:57 15.6 °C 10.8 °C 1029.7 hPa ENE 2.6 km/h 7.2 km/h 73% 0.0 mm 165 W/m2
08:02 16.0 °C 10.9 °C 1029.7 hPa ENE 2.6 km/h 7.2 km/h 72% 0.0 mm 254 W/m2
08:07 16.5 °C 11.2 °C 1029.7 hPa ENE 5.0 km/h 7.2 km/h 71% 0.0 mm 219 W/m2
08:12 16.4 °C 10.7 °C 1029.7 hPa ENE 1.1 km/h 7.2 km/h 69% 0.0 mm 174 W/m2
08:17 16.3 °C 10.4 °C 1029.7 hPa ENE 2.6 km/h 7.2 km/h 68% 0.0 mm 325 W/m2
08:22 16.6 °C 10.2 °C 1030.0 hPa ENE 2.6 km/h 6.1 km/h 66% 0.0 mm 191 W/m2
08:27 16.8 °C 10.4 °C 1030.0 hPa Calm   6.1 km/h 66% 0.0 mm 185 W/m2
08:32 17.3 °C 10.7 °C 1030.0 hPa ENE 3.5 km/h 7.2 km/h 65% 0.0 mm 287 W/m2
08:37 17.4 °C 10.3 °C 1030.0 hPa Calm   7.2 km/h 63% 0.0 mm 334 W/m2
08:42 18.4 °C 11.5 °C 1030.0 hPa Calm   7.2 km/h 64% 0.0 mm 311 W/m2
08:47 19.0 °C 10.8 °C 1030.0 hPa Calm   6.1 km/h 59% 0.0 mm 315 W/m2
08:52 19.1 °C 9.8 °C 1030.0 hPa Calm   9.7 km/h 55% 0.0 mm 330 W/m2
08:57 18.8 °C 10.4 °C 1030.0 hPa NE 3.5 km/h 11.1 km/h 58% 0.0 mm 343 W/m2
09:02 19.1 °C 10.4 °C 1030.0 hPa NE 1.1 km/h 11.1 km/h 57% 0.0 mm 352 W/m2
09:07 19.7 °C 10.9 °C 1030.0 hPa NE 2.6 km/h 9.7 km/h 57% 0.0 mm 369 W/m2
09:12 19.5 °C 10.2 °C 1030.0 hPa NE 7.2 km/h 12.2 km/h 55% 0.0 mm 384 W/m2
09:17 19.0 °C 10.1 °C 1030.0 hPa ENE 7.2 km/h 13.4 km/h 56% 0.0 mm 400 W/m2
09:22 18.7 °C 10.3 °C 1030.0 hPa ENE 3.5 km/h 13.4 km/h 58% 0.0 mm 407 W/m2
09:27 19.3 °C 10.3 °C 1030.0 hPa NE 7.2 km/h 13.4 km/h 56% 0.0 mm 255 W/m2
09:32 19.1 °C 9.6 °C 1030.0 hPa NE 6.1 km/h 12.2 km/h 54% 0.0 mm 481 W/m2
09:37 19.4 °C 9.9 °C 1030.0 hPa NE 5.0 km/h 12.2 km/h 54% 0.0 mm 288 W/m2
09:42 18.5 °C 9.0 °C 1030.0 hPa NE 9.7 km/h 18.3 km/h 54% 0.0 mm 268 W/m2
09:47 17.8 °C 8.7 °C 1030.0 hPa NNE 9.7 km/h 20.9 km/h 55% 0.0 mm 385 W/m2
09:52 18.3 °C 9.1 °C 1030.0 hPa Calm   20.9 km/h 55% 0.0 mm 489 W/m2
09:57 19.1 °C 9.0 °C 1030.0 hPa NNE 1.1 km/h 13.4 km/h 52% 0.0 mm 562 W/m2
10:02 19.7 °C 9.3 °C 1030.0 hPa NNE 8.7 km/h 14.8 km/h 51% 0.0 mm 583 W/m2
10:07 19.5 °C 7.6 °C 1030.0 hPa NNE 5.0 km/h 24.5 km/h 46% 0.0 mm 572 W/m2
10:12 19.2 °C 7.6 °C 1030.0 hPa NNE 5.0 km/h 24.5 km/h 47% 0.0 mm 304 W/m2
10:17 19.3 °C 7.7 °C 1030.0 hPa NNE 3.5 km/h 20.9 km/h 47% 0.0 mm 592 W/m2
10:22 19.5 °C 7.3 °C 1029.7 hPa NNE 5.0 km/h 20.9 km/h 45% 0.0 mm 434 W/m2
10:27 20.0 °C 7.4 °C 1030.0 hPa NE 9.7 km/h 20.9 km/h 44% 0.0 mm 168 W/m2
10:32 19.1 °C 6.9 °C 1029.7 hPa NNE 8.7 km/h 21.9 km/h 45% 0.0 mm 206 W/m2
10:37 18.6 °C 7.1 °C 1030.0 hPa NNE 3.5 km/h 21.9 km/h 47% 0.0 mm 238 W/m2
10:42 18.7 °C 7.5 °C 1029.7 hPa NNE 6.1 km/h 15.8 km/h 48% 0.0 mm 261 W/m2
10:47 18.6 °C 7.4 °C 1029.7 hPa North 5.0 km/h 13.4 km/h 48% 0.0 mm 297 W/m2
10:52 18.7 °C 7.8 °C 1030.0 hPa North 1.1 km/h 23.3 km/h 49% 0.0 mm 558 W/m2
10:57 19.7 °C 8.1 °C 1029.7 hPa NNE 5.0 km/h 23.3 km/h 47% 0.0 mm 700 W/m2
11:02 20.1 °C 7.8 °C 1029.7 hPa NNE 7.2 km/h 14.8 km/h 45% 0.0 mm 453 W/m2
11:07 19.7 °C 7.8 °C 1029.7 hPa North 5.0 km/h 20.9 km/h 46% 0.0 mm 410 W/m2
11:12 20.0 °C 8.3 °C 1029.3 hPa North 15.8 km/h 23.3 km/h 47% 0.0 mm 821 W/m2
11:17 19.8 °C 8.2 °C 1029.3 hPa North 11.1 km/h 25.6 km/h 47% 0.0 mm 734 W/m2
11:22 20.0 °C 8.3 °C 1029.3 hPa NNE 18.3 km/h 25.6 km/h 47% 0.0 mm 795 W/m2
11:27 19.9 °C 8.6 °C 1029.3 hPa North 8.7 km/h 23.3 km/h 48% 0.0 mm 883 W/m2
11:32 20.2 °C 8.6 °C 1029.3 hPa NNW 1.1 km/h 23.3 km/h 47% 0.0 mm 848 W/m2
11:51 21.3 °C 8.2 °C 1029.3 hPa NNE 6.1 km/h 14.8 km/h 43% 0.0 mm 837 W/m2
11:56 21.1 °C 7.3 °C 1029.0 hPa NNE 8.7 km/h 14.8 km/h 41% 0.0 mm 828 W/m2
12:01 20.8 °C 7.8 °C 1028.7 hPa NE 3.5 km/h 14.8 km/h 43% 0.0 mm 822 W/m2
12:06 21.4 °C 8.3 °C 1029.0 hPa ENE 7.2 km/h 13.4 km/h 43% 0.0 mm 828 W/m2
12:11 20.9 °C 8.2 °C 1029.0 hPa ENE 6.1 km/h 14.8 km/h 44% 0.0 mm 832 W/m2
12:16 21.3 °C 7.9 °C 1028.7 hPa ENE 6.1 km/h 14.8 km/h 42% 0.0 mm 872 W/m2
12:21 21.3 °C 7.9 °C 1029.0 hPa ENE 3.5 km/h 13.4 km/h 42% 0.0 mm 896 W/m2
12:26 21.6 °C 8.5 °C 1029.0 hPa NE 1.1 km/h 14.8 km/h 43% 0.0 mm 510 W/m2
12:31 21.1 °C 8.1 °C 1029.0 hPa NNE 6.1 km/h 14.8 km/h 43% 0.0 mm 279 W/m2
12:36 20.6 °C 7.9 °C 1028.7 hPa NNE 2.6 km/h 13.4 km/h 44% 0.0 mm 428 W/m2
12:41 20.6 °C 8.3 °C 1028.7 hPa NE 9.7 km/h 14.8 km/h 45% 0.0 mm 558 W/m2
12:46 21.1 °C 8.7 °C 1029.0 hPa NE 3.5 km/h 20.9 km/h 45% 0.0 mm 382 W/m2
12:51 21.1 °C 8.4 °C 1028.7 hPa Calm   20.9 km/h 44% 0.0 mm 807 W/m2
12:56 21.9 °C 9.1 °C 1028.7 hPa North 3.5 km/h 13.4 km/h 44% 0.0 mm 932 W/m2
13:01 21.5 °C 8.1 °C 1028.7 hPa NNE 6.1 km/h 17.2 km/h 42% 0.0 mm 231 W/m2
13:06 21.0 °C 8.3 °C 1028.7 hPa NNE 5.0 km/h 17.2 km/h 44% 0.0 mm 901 W/m2
13:11 21.8 °C 9.0 °C 1028.7 hPa NNE 7.2 km/h 14.8 km/h 44% 0.0 mm 873 W/m2
13:16 22.8 °C 9.2 °C 1028.7 hPa NNE 7.2 km/h 14.8 km/h 42% 0.0 mm 927 W/m2
13:21 22.2 °C 7.9 °C 1028.7 hPa North 6.1 km/h 17.2 km/h 40% 0.0 mm 894 W/m2
13:26 22.6 °C 8.7 °C 1028.3 hPa NNE 7.2 km/h 17.2 km/h 41% 0.0 mm 895 W/m2
13:31 22.4 °C 7.8 °C 1028.3 hPa NE 5.0 km/h 13.4 km/h 39% 0.0 mm 967 W/m2
13:36 22.0 °C 7.4 °C 1028.3 hPa NE 2.6 km/h 19.5 km/h 39% 0.0 mm 948 W/m2
13:41 21.9 °C 7.7 °C 1028.3 hPa NE 6.1 km/h 19.5 km/h 40% 0.0 mm 393 W/m2
13:46 21.5 °C 7.0 °C 1028.3 hPa ENE 3.5 km/h 13.4 km/h 39% 0.0 mm 341 W/m2
13:51 22.2 °C 8.7 °C 1028.3 hPa NE 12.2 km/h 15.8 km/h 42% 0.0 mm 466 W/m2
13:56 22.1 °C 7.1 °C 1028.3 hPa Calm   15.8 km/h 38% 0.0 mm 354 W/m2
14:01 22.3 °C 7.3 °C 1028.3 hPa NE 6.1 km/h 15.8 km/h 38% 0.0 mm 528 W/m2
14:06 22.3 °C 7.7 °C 1028.3 hPa East 5.0 km/h 9.7 km/h 39% 0.0 mm 835 W/m2
14:11 22.2 °C 7.6 °C 1028.3 hPa East 2.6 km/h 14.8 km/h 39% 0.0 mm 772 W/m2
14:16 22.8 °C 7.8 °C 1028.0 hPa Calm   14.8 km/h 38% 0.0 mm 770 W/m2
14:21 23.3 °C 8.6 °C 1028.0 hPa NNE 6.1 km/h 9.7 km/h 39% 0.0 mm 841 W/m2
14:26 23.5 °C 8.0 °C 1028.0 hPa NW 1.1 km/h 11.1 km/h 37% 0.0 mm 582 W/m2
14:31 24.4 °C 8.8 °C 1028.0 hPa Calm   11.1 km/h 37% 0.0 mm 667 W/m2
14:36 24.2 °C 9.0 °C 1028.0 hPa Calm   7.2 km/h 38% 0.0 mm 310 W/m2
14:41 23.6 °C 9.2 °C 1028.0 hPa NE 5.0 km/h 7.2 km/h 40% 0.0 mm 276 W/m2
14:46 22.6 °C 9.1 °C 1027.7 hPa East 7.2 km/h 11.1 km/h 42% 0.0 mm 257 W/m2
14:51 22.0 °C 8.8 °C 1028.0 hPa East 6.1 km/h 17.2 km/h 43% 0.0 mm 352 W/m2
14:56 21.5 °C 11.8 °C 1027.7 hPa ESE 2.6 km/h 17.2 km/h 54% 0.0 mm 265 W/m2
15:01 21.6 °C 12.2 °C 1027.7 hPa ESE 5.0 km/h 15.8 km/h 55% 0.0 mm 439 W/m2
15:06 21.7 °C 12.3 °C 1027.7 hPa ESE 7.2 km/h 17.2 km/h 55% 0.0 mm 627 W/m2
15:11 21.8 °C 12.1 °C 1027.7 hPa SE 8.7 km/h 17.2 km/h 54% 0.0 mm 530 W/m2
15:16 22.0 °C 12.3 °C 1027.3 hPa SE 8.7 km/h 15.8 km/h 54% 0.0 mm 461 W/m2
15:21 22.0 °C 12.6 °C 1027.3 hPa ESE 2.6 km/h 18.3 km/h 55% 0.0 mm 227 W/m2
15:26 21.9 °C 13.3 °C 1027.3 hPa SE 9.7 km/h 20.9 km/h 58% 0.0 mm 636 W/m2
15:31 22.4 °C 11.5 °C 1027.3 hPa SE 11.1 km/h 20.9 km/h 50% 0.0 mm 688 W/m2
15:36 22.6 °C 9.4 °C 1027.3 hPa NNE 3.5 km/h 20.9 km/h 43% 0.0 mm 556 W/m2
15:41 22.7 °C 9.5 °C 1027.3 hPa North 5.0 km/h 15.8 km/h 43% 0.0 mm 260 W/m2
15:46 23.0 °C 10.1 °C 1027.0 hPa North 2.6 km/h 12.2 km/h 44% 0.0 mm 367 W/m2
15:51 23.1 °C 10.6 °C 1027.0 hPa NNE 5.0 km/h 15.8 km/h 45% 0.0 mm 494 W/m2
15:56 23.3 °C 10.4 °C 1027.0 hPa NE 2.6 km/h 15.8 km/h 44% 0.0 mm 413 W/m2
16:01 23.7 °C 10.7 °C 1027.0 hPa ENE 9.7 km/h 21.9 km/h 44% 0.0 mm 318 W/m2
16:06 22.3 °C 9.4 °C 1027.0 hPa ENE 5.0 km/h 21.9 km/h 44% 0.0 mm 246 W/m2
16:11 22.1 °C 9.6 °C 1027.0 hPa ENE 6.1 km/h 19.5 km/h 45% 0.0 mm 238 W/m2
16:16 22.4 °C 10.2 °C 1027.0 hPa NE 7.2 km/h 13.4 km/h 46% 0.0 mm 432 W/m2
16:22 22.6 °C 10.1 °C 1027.0 hPa NNE 5.0 km/h 12.2 km/h 45% 0.0 mm 545 W/m2
16:24 22.9 °C 10.3 °C 1027.0 hPa North 1.1 km/h 12.2 km/h 45% 0.0 mm 474 W/m2
16:26 23.4 °C 11.1 °C 1027.0 hPa NNE 7.2 km/h 12.2 km/h 46% 0.0 mm 417 W/m2
16:31 23.3 °C 11.1 °C 1027.0 hPa NE 5.0 km/h 12.2 km/h 46% 0.0 mm 307 W/m2
16:36 22.9 °C 10.0 °C 1027.0 hPa NE 7.2 km/h 12.2 km/h 44% 0.0 mm 300 W/m2
16:41 21.6 °C 10.1 °C 1027.0 hPa NE 8.7 km/h 18.3 km/h 48% 0.0 mm 412 W/m2
16:46 21.7 °C 11.4 °C 1027.0 hPa ENE 3.5 km/h 18.3 km/h 52% 0.0 mm 297 W/m2
16:48 21.7 °C 11.1 °C 1027.0 hPa NE 5.0 km/h 17.2 km/h 51% 0.0 mm 236 W/m2
16:53 21.3 °C 11.6 °C 1027.0 hPa NE 5.0 km/h 14.8 km/h 54% 0.0 mm 143 W/m2
16:55 21.1 °C 11.4 °C 1027.0 hPa ENE 5.0 km/h 14.8 km/h 54% 0.0 mm 116 W/m2
17:00 20.4 °C 11.3 °C 1027.0 hPa ENE 3.5 km/h 14.8 km/h 56% 0.0 mm 93 W/m2
17:05 20.4 °C 11.3 °C 1027.0 hPa ENE 2.6 km/h 11.1 km/h 56% 0.0 mm 107 W/m2
17:10 20.4 °C 11.3 °C 1027.0 hPa ENE 7.2 km/h 13.4 km/h 56% 0.0 mm 136 W/m2
17:15 20.3 °C 11.0 °C 1027.0 hPa ENE 6.1 km/h 14.8 km/h 55% 0.0 mm 137 W/m2
17:20 20.6 °C 11.3 °C 1027.0 hPa ENE 6.1 km/h 15.8 km/h 55% 0.0 mm 243 W/m2
17:25 21.0 °C 11.1 °C 1027.0 hPa NE 3.5 km/h 15.8 km/h 53% 0.0 mm 325 W/m2
17:30 21.3 °C 11.3 °C 1026.6 hPa ENE 8.7 km/h 18.3 km/h 53% 0.0 mm 301 W/m2
17:35 21.8 °C 11.8 °C 1027.0 hPa East 1.1 km/h 18.3 km/h 53% 0.0 mm 282 W/m2
17:40 22.8 °C 11.6 °C 1026.6 hPa ENE 3.5 km/h 14.8 km/h 49% 0.0 mm 268 W/m2
17:45 23.0 °C 11.4 °C 1026.6 hPa ENE 3.5 km/h 8.7 km/h 48% 0.0 mm 112 W/m2
17:50 22.2 °C 11.0 °C 1027.0 hPa Calm   8.7 km/h 49% 0.0 mm 120 W/m2
17:55 21.2 °C 11.3 °C 1027.0 hPa ENE 7.2 km/h 13.4 km/h 53% 0.0 mm 232 W/m2
18:00 20.6 °C 11.5 °C 1027.0 hPa ENE 11.1 km/h 15.8 km/h 56% 0.0 mm 118 W/m2
18:05 20.3 °C 12.1 °C 1027.0 hPa NE 5.0 km/h 15.8 km/h 59% 0.0 mm 113 W/m2
18:23 19.6 °C 12.6 °C 1027.0 hPa East 6.1 km/h 14.8 km/h 64% 0.0 mm 100 W/m2
18:28 19.6 °C 12.6 °C 1027.0 hPa ENE 5.0 km/h 12.2 km/h 64% 0.0 mm 75 W/m2
18:33 19.6 °C 12.6 °C 1027.0 hPa ENE 1.1 km/h 11.1 km/h 64% 0.0 mm 61 W/m2
18:38 19.5 °C 12.5 °C 1027.0 hPa NE 2.6 km/h 11.1 km/h 64% 0.0 mm 51 W/m2
18:43 19.2 °C 12.2 °C 1027.0 hPa ENE 1.1 km/h 12.2 km/h 64% 0.0 mm 31 W/m2
18:48 19.1 °C 12.4 °C 1027.0 hPa Calm   12.2 km/h 65% 0.0 mm 28 W/m2
18:53 19.0 °C 12.3 °C 1027.0 hPa Calm   7.2 km/h 65% 0.0 mm 29 W/m2
18:58 18.9 °C 12.2 °C 1027.0 hPa Calm   9.7 km/h 65% 0.0 mm 26 W/m2
19:03 18.8 °C 12.3 °C 1027.0 hPa Calm   9.7 km/h 66% 0.0 mm 22 W/m2
19:08 18.6 °C 12.1 °C 1027.0 hPa Calm   6.1 km/h 66% 0.0 mm 18 W/m2
19:13 18.5 °C 12.1 °C 1027.0 hPa ENE 1.1 km/h 9.7 km/h 66% 0.0 mm 15 W/m2
19:18 18.2 °C 12.0 °C 1027.0 hPa NE 2.6 km/h 11.1 km/h 67% 0.0 mm 12 W/m2
19:23 18.1 °C 11.9 °C 1027.3 hPa ENE 2.6 km/h 11.1 km/h 67% 0.0 mm 11 W/m2
19:28 18.1 °C 12.1 °C 1027.3 hPa Calm   7.2 km/h 68% 0.0 mm 9 W/m2
19:33 18.0 °C 12.0 °C 1027.3 hPa Calm   7.2 km/h 68% 0.0 mm 5 W/m2
19:38 17.8 °C 11.8 °C 1027.3 hPa Calm   7.2 km/h 68% 0.0 mm 3 W/m2
19:43 17.6 °C 11.8 °C 1027.3 hPa Calm   3.5 km/h 69% 0.0 mm 1 W/m2
19:48 17.4 °C 11.7 °C 1027.7 hPa NE 2.6 km/h 9.7 km/h 69% 0.0 mm 0 W/m2
19:53 17.4 °C 11.7 °C 1027.7 hPa NNE 1.1 km/h 12.2 km/h 69% 0.0 mm 0 W/m2
19:58 17.3 °C 11.8 °C 1027.7 hPa North 2.6 km/h 12.2 km/h 70% 0.0 mm 0 W/m2
20:03 17.2 °C 11.9 °C 1027.3 hPa North 5.0 km/h 12.2 km/h 71% 0.0 mm 0 W/m2
20:08 17.1 °C 11.8 °C 1027.3 hPa North 2.6 km/h 9.7 km/h 71% 0.0 mm 0 W/m2
20:13 17.0 °C 11.7 °C 1027.3 hPa North 3.5 km/h 11.1 km/h 71% 0.0 mm 0 W/m2
20:18 17.0 °C 11.7 °C 1027.3 hPa North 6.1 km/h 11.1 km/h 71% 0.0 mm 0 W/m2
20:23 17.0 °C 11.7 °C 1027.7 hPa North 3.5 km/h 12.2 km/h 71% 0.0 mm 0 W/m2
20:28 16.8 °C 11.7 °C 1027.3 hPa NNW 1.1 km/h 12.2 km/h 72% 0.0 mm 0 W/m2
20:33 16.8 °C 11.7 °C 1027.7 hPa Calm   7.2 km/h 72% 0.0 mm 0 W/m2
20:38 16.7 °C 11.8 °C 1027.7 hPa North 2.6 km/h 7.2 km/h 73% 0.0 mm 0 W/m2
20:43 16.7 °C 11.8 °C 1027.7 hPa Calm   7.2 km/h 73% 0.0 mm 0 W/m2
20:48 16.7 °C 11.8 °C 1027.7 hPa North 3.5 km/h 11.1 km/h 73% 0.0 mm 0 W/m2
20:53 16.7 °C 11.8 °C 1027.7 hPa North 3.5 km/h 12.2 km/h 73% 0.0 mm 0 W/m2
20:58 16.6 °C 11.6 °C 1027.7 hPa North 2.6 km/h 17.2 km/h 72% 0.0 mm 0 W/m2
21:03 16.6 °C 11.7 °C 1027.7 hPa NNE 3.5 km/h 17.2 km/h 73% 0.0 mm 0 W/m2
21:08 16.4 °C 11.6 °C 1028.0 hPa North 2.6 km/h 9.7 km/h 73% 0.0 mm 0 W/m2
21:13 16.4 °C 11.6 °C 1027.7 hPa North 2.6 km/h 8.7 km/h 73% 0.0 mm 0 W/m2
21:18 16.3 °C 11.4 °C 1027.7 hPa North 6.1 km/h 14.8 km/h 73% 0.0 mm 0 W/m2
21:23 16.3 °C 11.7 °C 1027.7 hPa Calm   14.8 km/h 74% 0.0 mm 0 W/m2
21:28 16.2 °C 11.6 °C 1028.0 hPa North 1.1 km/h 13.4 km/h 74% 0.0 mm 0 W/m2
21:33 16.2 °C 11.8 °C 1028.0 hPa North 8.7 km/h 13.4 km/h 75% 0.0 mm 0 W/m2
21:38 16.1 °C 11.7 °C 1027.7 hPa NNW 7.2 km/h 17.2 km/h 75% 0.0 mm 0 W/m2
21:43 16.1 °C 11.7 °C 1027.7 hPa North 5.0 km/h 17.2 km/h 75% 0.0 mm 0 W/m2
21:48 16.0 °C 11.6 °C 1028.0 hPa North 2.6 km/h 13.4 km/h 75% 0.0 mm 0 W/m2
21:53 16.0 °C 11.6 °C 1027.7 hPa North 9.7 km/h 13.4 km/h 75% 0.0 mm 0 W/m2
21:58 16.0 °C 11.6 °C 1028.0 hPa NNE 3.5 km/h 18.3 km/h 75% 0.0 mm 0 W/m2
22:03 16.0 °C 11.6 °C 1028.0 hPa NNE 5.0 km/h 18.3 km/h 75% 0.0 mm 0 W/m2
22:21 16.0 °C 11.4 °C 1028.0 hPa NNE 5.0 km/h 12.2 km/h 74% 0.0 mm 0 W/m2
22:26 15.9 °C 11.5 °C 1028.0 hPa NNE 5.0 km/h 11.1 km/h 75% 0.0 mm 0 W/m2
22:31 15.9 °C 11.5 °C 1028.0 hPa North 8.7 km/h 15.8 km/h 75% 0.0 mm 0 W/m2
22:36 15.8 °C 11.6 °C 1028.0 hPa NNW 2.6 km/h 15.8 km/h 76% 0.0 mm 0 W/m2
22:41 15.8 °C 11.6 °C 1028.0 hPa North 5.0 km/h 11.1 km/h 76% 0.0 mm 0 W/m2
22:46 15.8 °C 11.6 °C 1028.0 hPa North 2.6 km/h 11.1 km/h 76% 0.0 mm 0 W/m2
22:51 15.7 °C 11.5 °C 1028.0 hPa NNE 1.1 km/h 8.7 km/h 76% 0.0 mm 0 W/m2
22:56 15.7 °C 11.5 °C 1028.0 hPa North 2.6 km/h 9.7 km/h 76% 0.0 mm 0 W/m2
23:01 15.7 °C 11.3 °C 1027.7 hPa North 2.6 km/h 9.7 km/h 75% 0.0 mm 0 W/m2
23:06 15.7 °C 11.3 °C 1028.0 hPa North 1.1 km/h 9.7 km/h 75% 0.0 mm 0 W/m2
23:11 15.6 °C 11.2 °C 1028.0 hPa NNE 1.1 km/h 9.7 km/h 75% 0.0 mm 0 W/m2
23:16 15.5 °C 11.1 °C 1028.0 hPa NNE 6.1 km/h 11.1 km/h 75% 0.0 mm 0 W/m2
23:21 15.5 °C 11.1 °C 1028.0 hPa North 1.1 km/h 11.1 km/h 75% 0.0 mm 0 W/m2
23:26 15.4 °C 11.0 °C 1027.7 hPa North 2.6 km/h 14.8 km/h 75% 0.0 mm 0 W/m2
23:31 15.3 °C 10.9 °C 1027.7 hPa Calm   14.8 km/h 75% 0.0 mm 0 W/m2
23:36 15.2 °C 10.8 °C 1028.0 hPa North 2.6 km/h 8.7 km/h 75% 0.0 mm 0 W/m2
23:41 15.2 °C 10.8 °C 1028.0 hPa North 3.5 km/h 8.7 km/h 75% 0.0 mm 0 W/m2
23:46 15.1 °C 10.9 °C 1028.0 hPa NNW 1.1 km/h 8.7 km/h 76% 0.0 mm 0 W/m2
23:51 15.0 °C 10.8 °C 1028.0 hPa Calm   7.2 km/h 76% 0.0 mm 0 W/m2
23:56 15.0 °C 10.8 °C 1028.0 hPa Calm   7.2 km/h 76% 0.0 mm 0 W/m2
Northern Hawkes Bay. New Zealand Historic Data
Compliments of Weather Underground - 2.25 mb